Regional Weather Roundup
Issued by NWS

Home | Current Version | Previous Version | Text Only | Print | Product List | Glossary On
Versions: 1 2 3 4 5 6 7 8 9 10 11 12 13 14 15 16 17 18 19 20 21 22 23 24 25 26 27 28 29 30 31 32 33 34 35 36 37 38 39 40 41 42 43 44 45 46 47 48 49 50
000
ASUS43 KOAX 191910
RWRNE

WEATHER ROUNDUP FOR NEBRASKA
NATIONAL WEATHER SERVICE OMAHA NE
100 PM CST FRI DEC 19 2014

NOTES: SATELLITE DATA IS BEING USED TO AUGMENT CLOUD COVER ABOVE
       12000 FEET.
       "FAIR" INDICATES FEW OR NO CLOUDS BELOW 12,000 FEET WITH NO
       SIGNIFICANT WEATHER AND/OR OBSTRUCTIONS TO VISIBILITY.

  * THESE STATIONS DO NOT REPORT WEATHER SUCH AS RAIN...SNOW OR FOG.

NEZ001>004-019>022-054>056-192000-
NEBRASKA PANHANDLE

CITY           SKY/WX    TMP DP  RH WIND       PRES   REMARKS
SCOTTSBLUFF    SUNNY     30  23  75 W6        30.01F WCI  24
ALLIANCE       SUNNY     34  25  69 W14       29.98F WCI  25
CHADRON        SUNNY     38  22  52 W13       29.99F WCI  30
KIMBALL        SUNNY     42  20  41 W22G29    30.00F
SIDNEY         SUNNY     40  24  53 W17       30.02F WCI  31
$$

NEZ057>060-069>072-079>082-192000-
SOUTHWEST NEBRASKA

CITY           SKY/WX    TMP DP  RH WIND       PRES   REMARKS
NORTH PLATTE   SUNNY     35  24  64 W9        30.04F WCI  28
IMPERIAL       SUNNY     37  27  67 W13       30.06F WCI  29
LEXINGTON      SUNNY     31  28  89 S7        30.06F WCI  24
MCCOOK         SUNNY     36  31  82 SW5       30.07F WCI  32
OGALLALA       SUNNY     32  26  76 W9        30.04F WCI  25
$$

NEZ005>010-023>029-035>040-094-192000-
NORTH CENTRAL NEBRASKA

CITY           SKY/WX    TMP DP  RH WIND       PRES   REMARKS
VALENTINE      SUNNY     36  23  59 W9        29.98F WCI  29
AINSWORTH      SUNNY     32  25  75 SW7       29.99F WCI  26
BROKEN BOW     SUNNY     32  25  75 S8        30.04F WCI  25
O`NEILL        CLOUDY    28  28 100 S6        30.05F FOG     WCI  21
THEDFORD       SUNNY     40  28  60 W9        30.00F WCI  35
$$

NEZ041-046>049-061>064-073>077-083>087-192000-
SOUTH CENTRAL NEBRASKA

CITY           SKY/WX    TMP DP  RH WIND       PRES   REMARKS
GRAND ISLAND   CLOUDY    30  28  92 SW13      30.12F FOG     WCI  20
AURORA         CLOUDY    33  31  94 S9        30.12F WCI  25
HASTINGS       CLOUDY    34  28  79 S10       30.11F WCI  26
HEBRON         CLOUDY    33  29  86 S9        30.17F FOG     WCI  25
HOLDREGE       CLOUDY    28  28  96 S10       30.09F FOG     WCI  19
KEARNEY *      CLOUDY    28  27  93 S14       30.09F WCI  17
YORK           CLOUDY    32  30  93 S12       30.14F FOG     WCI  23
$$

NEZ011>018-030>034-042>045-192000-
NORTHEAST NEBRASKA

CITY           SKY/WX    TMP DP  RH WIND       PRES   REMARKS
NORFOLK        CLOUDY    33  29  85 S13       30.10F WCI  24
ALBION         CLOUDY    31  28  88 S12       30.10F FOG     WCI  21
BLAIR          CLOUDY    34  30  87 S12       30.16F FOG     WCI  25
COLUMBUS *     CLOUDY    32  25  74 S10       30.15F WCI  24
FREMONT        CLOUDY    35  28  78 S14       30.17F WCI  25
TEKAMAH        CLOUDY    35  29  78 S10       30.18F WCI  27
WAYNE          CLOUDY    32  28  86 S13G20    30.13F WCI  22
$$

NEZ050>053-065>068-078-088>093-192000-
SOUTHEAST NEBRASKA

CITY           SKY/WX    TMP DP  RH WIND       PRES   REMARKS
LINCOLN        CLOUDY    34  29  82 S13       30.19F WCI  25
OMAHA EPPLEY   CLOUDY    33  29  85 S13       30.20F FOG     WCI  24
BEATRICE       CLOUDY    32  30  91 S10       30.18F WCI  24
FALLS CITY     CLOUDY    30  26  85 S9        30.23F WCI  22
NEBRASKA CITY  CLOUDY    31  30  96 S10       30.21F WCI  23
PLATTSMOUTH    CLOUDY    32  28  87 S10       30.20F WCI  23
$$

NEZ044-045-051>053-067-192000-
OMAHA AREA

CITY           SKY/WX    TMP DP  RH WIND       PRES   REMARKS
OMAHA EPPLEY   CLOUDY    33  29  85 S13       30.20F FOG     WCI  24
BLAIR          CLOUDY    34  30  87 S12       30.16F FOG     WCI  25
FREMONT        CLOUDY    35  28  78 S14       30.17F WCI  25
MILLARD        CLOUDY    34  30  85 SE9       30.19F WCI  27
OFFUTT AFB     CLOUDY    33  29  85 S12       30.19F WCI  24
PLATTSMOUTH    CLOUDY    32  28  87 S10       30.20F WCI  23
WAHOO          CLOUDY    33  28  80 S10       30.18S WCI  25
$$


USA.gov is the U.S. government's official web portal to all federal, state and local government web resources and services.